Starlink 30834

operational
NORAD ID: 58151 Int'l Des: 2023-166 Owner: SPXS Country: US Constellation: starlink
LEOCIRCULAR

Über Starlink 30834

Beschreibung wird geladen...

Live-Position

3D-Globus wird geladen...

Nächste Überflüge

Höhenverlauf

Altitude vs Time

uPlot chart will show altitude changes over time

Zweizeiliger Elementsatz

1 58151U 23166B 25259.16486751 .00000808 00000-0 39386-4 0 9998
2 58151 53.1597 310.4092 0001560 81.7289 278.3888 15.30218934106454
Epoch: 16. Sept. 2025 • Age: 9 hours

Aktueller Status

Höhe 486.6 km
Geschwindigkeit 7.62 km/s
Subsatellitenpunkt -33.78°S, 28.65°W
Startdatum 29. Okt. 2023
Alter 1.8 years
Typ internet

Technische Details

Klassifizierung Payload
Masse 730.00 kg
Trockenmasse 700.00 kg
Gesamtmasse 730.00 kg
Länge 0.30 m
Durchmesser 4.10 m
Spannweite 29.00 m
Form Box + pan
Hersteller SPXS
Bus-Typ Starlink V2M
Phasenstatus In Orbit
Besitzer/Staat SPXS/US

Große Konstellationen

Loading constellations...